DELTA 1 DEB, 20012

Orbit data source: Space-Track

DELTA 1 DEB, 20012 is space debris in SSO originally from a launch on Thu, 29 Jul 1976 UTC launched from the Air Force Western Test Range (AFWTR). Debris objects in space refer to the collection of defunct objects orbiting the Earth. Examples of debris include non-operational satellites, rocket bodies, and fragments generated from explosions, collisions, or faulty payload assembly.

Loading next visibility...
Identifier
20012, 1976-077FM
Orbit
SSO
Country
Flag of USUS
Related business
Manufacturer
Unknown
Mission
Spacecraft
Bus & Motor
Unknown
Mass
Unknown
Launch date (UTC)
1976-07-29 (49 years ago)
Launch vehicle
Unknown
Launch site
Air Force Western Test Range (AFWTR)
Object type
Payload
Rocket body
Debris
Shape & HBR
Unknown shape, 0.1 m
Radar Cross Section
Small (<0.1 m²)

Expand to show TLE details & history
Last TLE update: 23 hours ago

TLE from 23 hours ago
0 DELTA 1 DEB
1 20012U 76077FM  25288.88534073  .00000827  00000-0  32246-2 0  9991
2 20012 102.0578 330.2450 0080074 136.7108  46.5590 12.91981804559384
Epoch: 2025-10-15T21:14Z
TLE epoch observation values (Epoch: 2025-10-15T21:14:53.439Z)
Latitude
-3.98336°
Longitude
166.02134°
Altitude
1,254.906 km
Speed
7.247 km/s
True Right ascension
09h 57m 35s
True Declination
-3° 57' 40"
Sunlit
Object was in daylight at epoch
Visualization orbit readout
Latitude
Unknown
Longitude
Unknown
Altitude
Unknown
Speed
Unknown
Apparent Right ascension
Unknown
Apparent Declination
Unknown
Sunlit
N/A
Visualization observer readout
Local Sidereal Time
14:52:11
Azimuth
Unknown
Elevation
Unknown
Doppler factor
Unknown
Orbital elements
Apogee altitude
1,352.59 km
Perigee altitude
1,229.768 km
Semi-major axis
7,669.316 km
Eccentricity
0.00801
Inclination
102.0578°
RAAN
330.245°
Arg. of periapsis
136.7108°
True anomaly
47.22984°
Mean anomaly
46.559°
Eccentric anomaly
46.89396°
Mean motion
3.23153 °/min
Orbital period
111.4 mins
BSTAR
0.0032246
Loading maneuver chart data...
Computing Atmospheric mass density...
Loading historical data...
Loading historical data...
Loading historical data...
Loading historical data...
Loading historical data...
Loading historical data...
Loading historical data...

Documentation

Showing up to 5 results
|